Location: Denkershausen
(51.7388°N, 10.0454°E)
Time: 22:02:46
(UTC+00:00)

Daily predictions for brighter satellites

Satellite Brightness Start Highest point End
(mag) Time Altitude Azimuth Time Altitude Azimuth Time Altitude Azimuth
BREEZE-M DEB (TANK) 3.1 15:39:41 10° WSW 15:42:06 58° SSE 15:47:51 10° E
ARIANE 5 R/B 3.2 15:41:45 10° ESE 15:46:10 31° ENE 15:50:40 10° N
Cosmos 2084 Rocket 3.4 15:42:56 10° NW 15:47:08 66° NE 15:51:20 10° ESE
Intercosmos 24 3.7 15:44:07 10° N 15:47:59 57° ENE 15:51:28 10° SSE
NOSS 3-2 (A) 3.3 15:43:13 10° SSW 15:48:13 65° SE 15:54:18 10° NE
Cosmos 1782 3.2 15:46:14 10° SSE 15:49:32 35° E 15:52:52 10° NNE
NOSS 3-2 (C) 4.1 15:45:46 10° S 15:50:09 31° ESE 15:55:15 10° ENE
SL-08 ROCKET BODY 4.5 15:44:26 10° N 15:50:20 59° ENE 15:56:16 10° SSE
Cosmos 1656 4.0 15:45:05 10° S 15:50:32 53° ESE 15:56:04 10° NE
Cosmos 1758 Rocket 3.6 15:46:54 10° N 15:51:10 57° ENE 15:55:23 10° SSE
Cosmos 2034 Rocket 4.4 15:44:53 10° SSW 15:51:12 69° WNW 15:57:34 10° N
Cosmos 2208 Rocket 4.0 15:47:57 10° NNW 15:53:09 85° ENE 15:58:21 10° SSE
Cosmos 2098 Rocket 3.7 15:50:59 10° SSE 15:54:58 40° E 15:59:39 10° NNE
NOSS 2-2 (E) 3.3 15:52:33 10° SSW 15:55:43 44° SE 15:58:38 10° NE
Cosmos 724 4.4 15:50:35 10° NW 15:56:43 88° NE 16:02:38 10° SE
Meteor 1-20 Rocket 4.4 15:52:33 10° N 15:57:49 46° ENE 16:03:04 10° SE
CZ-4C R/B 2.9 15:52:51 10° NW 15:59:30 80° NE 16:07:57 10° SE
Cosmos 2266 Rocket 4.2 15:54:53 10° N 16:00:49 47° ENE 16:06:38 10° SE
Cosmos 405 Rocket 2.6 15:59:24 10° NNW 16:02:39 68° W 16:05:51 10° S
CBERS-1 4.0 16:00:12 10° SSE 16:05:19 81° ENE 16:10:27 10° NNW
SMAP 3.2 16:02:15 10° SE 16:06:45 50° ENE 16:11:16 10° N
Cosmos 2297 Rocket 2.3 16:03:04 10° NNW 16:08:47 86° WSW 16:14:27 10° SSE
Landsat 7 4.1 16:07:11 10° SE 16:11:35 44° ENE 16:16:00 10° N
[s.n.66845] 3.7 16:11:39 10° NNE 16:12:44 12° NE 16:12:44 12° NE
[s.n.66847] 3.7 16:12:05 10° NNE 16:13:11 12° NE 16:13:11 12° NE
Cosmos 1626 Rocket 3.7 16:09:09 10° NNW 16:13:29 77° W 16:17:46 10° S
[s.n.66846] 3.7 16:12:30 10° NNE 16:13:36 12° NE 16:13:36 12° NE
[s.n.66843] 3.7 16:13:01 10° NNE 16:14:08 12° NE 16:14:08 12° NE
Meteor 1-28 Rocket 3.0 16:11:03 10° NNE 16:14:22 54° E 16:17:39 10° S
[s.n.66844] 3.7 16:13:27 10° NNE 16:14:35 12° NE 16:14:35 12° NE
[s.n.66842] 3.7 16:13:58 10° NNE 16:15:06 13° NE 16:15:06 13° NE
[s.n.66841] 3.6 16:14:24 10° NNE 16:15:33 13° NE 16:15:33 13° NE
[s.n.66840] 3.6 16:14:53 10° NNE 16:16:03 13° NE 16:16:03 13° NE
[s.n.66838] 3.6 16:15:21 10° N 16:16:31 13° NE 16:16:31 13° NE
NOSS 2-2 (C) 3.4 16:14:11 10° WSW 16:17:12 45° NW 16:19:48 12° NE
[s.n.66839] 3.6 16:15:50 10° N 16:17:01 13° NE 16:17:01 13° NE
[s.n.66837] 3.6 16:16:16 10° N 16:17:28 13° NE 16:17:28 13° NE
[s.n.66836] 3.6 16:16:45 10° N 16:17:57 13° NE 16:17:57 13° NE
[s.n.66835] 3.6 16:17:15 10° N 16:18:27 13° NE 16:18:27 13° NE
[s.n.66834] 3.6 16:17:44 10° N 16:18:56 13° NE 16:18:56 13° NE
[s.n.66833] 3.6 16:18:09 10° N 16:19:22 14° NE 16:19:22 14° NE
[s.n.66832] 3.6 16:18:41 10° N 16:19:54 14° NE 16:19:54 14° NE
[s.n.66831] 3.6 16:19:05 10° N 16:20:19 14° NE 16:20:19 14° NE
[s.n.66830] 3.6 16:19:31 10° N 16:20:45 14° NE 16:20:45 14° NE
[s.n.66828] 3.6 16:19:55 10° N 16:21:11 14° NE 16:21:11 14° NE
[s.n.66829] 3.6 16:20:27 10° N 16:21:42 14° NNE 16:21:42 14° NNE
[s.n.66827] 3.5 16:20:57 10° N 16:22:13 14° NNE 16:22:13 14° NNE
Cosmos 1315 Rocket 4.0 16:19:19 10° SW 16:22:56 39° WNW 16:26:34 10° N
[s.n.66826] 3.5 16:21:27 10° N 16:22:43 14° NNE 16:22:43 14° NNE
[s.n.66825] 3.5 16:21:53 10° N 16:23:09 14° NNE 16:23:09 14° NNE
[s.n.66824] 3.5 16:22:23 10° N 16:23:40 14° NNE 16:23:40 14° NNE
Cosmos 1606 Rocket 4.3 16:20:21 10° SSE 16:24:16 32° E 16:28:14 10° NNE
[s.n.66823] 3.5 16:22:54 10° N 16:24:10 15° NNE 16:24:10 15° NNE
[s.n.66822] 3.5 16:23:22 10° N 16:24:39 15° NNE 16:24:39 15° NNE
ATLAS CENTAUR R/B 3.5 16:22:31 10° WNW 16:25:10 23° WSW 16:27:43 10° S
[s.n.66821] 3.5 16:23:49 10° N 16:25:07 15° NNE 16:25:07 15° NNE
Thor Agena Rocket 3.6 16:22:32 10° SSE 16:27:45 90° WSW 16:32:55 10° NNW
Cosmos 2219 3.8 16:23:19 10° NNW 16:28:34 35° NE 16:33:47 10° ESE
Cosmos 1503 Rocket 4.2 16:23:36 10° S 16:28:41 54° ESE 16:33:38 11° NNE
CENTAUR R/B 3.2 16:24:15 10° WSW 16:30:10 51° NNW 16:36:57 13° NE
Cosmos 1484 Rocket 3.8 16:29:05 10° S 16:32:27 45° W 16:35:50 10° NNW
USA 290 3.5 16:29:26 10° NW 16:32:34 44° WSW 16:35:41 10° S
SL-16 R/B 2.6 16:26:28 10° NNE 16:32:43 85° WNW 16:38:55 10° SSW
GEOS 3 Rocket 4.0 16:28:50 14° NE 16:33:22 53° SE 16:38:35 10° SSW
Cosmos 1544 Rocket 3.7 16:29:01 10° SSW 16:33:26 77° WNW 16:37:53 10° N
AQUARIUS 4.2 16:30:27 10° SE 16:34:43 52° ENE 16:39:01 10° N
Cosmos 1844 Rocket 4.1 16:31:25 10° NNW 16:35:27 19° NNE 16:37:19 17° ENE
Lacrosse 5 rocket 1.8 16:31:58 10° W 16:35:31 41° NNW 16:37:41 20° NE
Cosmos 1980 Rocket 3.4 16:31:28 10° SSE 16:35:42 22° ESE 16:37:57 18° ENE
Cosmos 1354 Rocket 4.3 16:33:19 10° S 16:38:20 47° ESE 16:42:34 14° NE
Meteor 1-25 Rocket 4.2 16:32:38 10° N 16:38:30 73° ENE 16:44:15 10° SSE
Meteor 1-5 Rocket 4.3 16:33:22 10° N 16:38:34 50° ENE 16:43:51 10° SSE
Lacrosse 4 Rocket 3.3 16:37:20 10° W 16:40:29 21° NW 16:43:35 10° NNE
BREEZE M DEB (TANK) 3.5 16:38:44 10° SSW 16:40:34 19° SSE 16:41:17 17° SE
CORIOLIS 4.3 16:36:39 10° SSE 16:41:59 80° WSW 16:47:22 10° NNW
IRIDIUM 104 4.3 16:37:57 10° N 16:43:13 86° E 16:48:27 10° S
Cosmos 2263 Rocket 2.3 16:38:10 10° NNW 16:43:45 54° NE 16:49:19 10° SE
Cosmos 1777 Rocket 3.9 16:39:36 10° SSW 16:44:51 82° ESE 16:49:53 11° NNE
Cosmos 1726 Rocket 4.0 16:43:48 10° SSE 16:48:09 42° E 16:51:54 13° NNE
CZ-2D R/B 2.6 16:45:31 10° SSE 16:48:39 81° ENE 16:51:49 10° NNW
Okean 1-7 Rocket 3.6 16:46:06 10° NNW 16:50:32 85° W 16:54:53 10° S
USA 238 DEB 4.3 16:45:36 10° S 16:50:50 30° ESE 16:53:47 21° ENE
USA 238 4.4 16:45:44 10° S 16:50:57 30° ESE 16:53:52 21° ENE
IRIDIUM 114 4.4 16:47:06 10° N 16:52:22 81° W 16:57:35 10° S
Cosmos 1602 Rocket 4.2 16:48:06 10° NNW 16:52:26 58° W 16:56:41 10° S
NOSS 3 (A) 4.2 16:50:16 10° NW 16:52:26 50° NE 16:52:32 49° NE
ERS-1 4.4 16:49:14 10° SSE 16:54:15 83° ENE 16:59:14 10° NNW
Cosmos 1461 2.6 16:52:32 10° SW 16:56:27 85° SE 16:58:30 27° NE
Cosmos 1933 3.1 16:54:24 10° S 16:58:12 73° E 17:01:21 15° NNE
USA 215 3.5 16:53:50 21° ENE 16:58:16 57° N 17:04:39 10° WNW
IRS-1C 4.3 16:54:39 10° SSE 16:59:58 78° WSW 17:05:20 10° NNW
Cosmos 2227 Rocket 2.3 16:54:32 10° NNW 17:00:12 79° WSW 17:05:51 10° SSE
SKYMED 2 4.2 16:58:49 27° ENE 17:00:16 34° E 17:04:15 10° SSE
YAOGAN 1 2.9 16:56:47 10° SE 17:00:43 38° ENE 17:04:41 10° N
Cosmos-2242 4.1 16:57:27 10° SE 17:00:13 24° ESE 17:00:13 24° ESE
NOSS 2-3 (E) 3.8 16:59:37 10° SSW 17:02:59 35° SE 17:03:39 33° E
NOSS 2-3 (D) 3.9 17:00:19 10° S 17:03:39 34° SE 17:04:14 32° ESE
Cosmos 1486 Rocket 4.5 16:59:32 10° SW 17:04:42 60° WNW 17:09:40 11° NNE
SJ-12 4.0 17:01:02 10° S 17:04:47 70° WSW 17:08:36 10° NNW
Cosmos 2369 Rocket 4.3 17:02:01 10° WNW 17:05:31 16° NNW 17:09:03 10° NNE
Cosmos 2151 4.3 17:02:33 10° NNW 17:06:29 42° W 17:10:24 10° SSW
Cosmos 1655 Rocket 3.9 17:06:11 10° N 17:12:28 80° E 17:18:41 10° SSE
Meteor 2-10 4.1 17:08:21 10° N 17:13:39 61° ENE 17:19:07 10° SSE
Cosmos 1697 Rocket 2.6 17:10:01 10° SSW 17:15:37 82° ESE 17:19:15 23° NNE
Cosmos 990 Rocket 3.8 17:10:48 10° SSW 17:15:55 77° ESE 17:19:09 23° NNE
CZ-4 R/B 4.2 17:12:16 10° SSE 17:16:13 78° ENE 17:20:11 10° NNW
Cosmos 1953 Rocket 3.4 17:11:51 10° N 17:16:19 79° E 17:20:46 10° SSE
MOS 1 Rocket 3.7 17:12:39 10° S 17:17:36 72° WSW 17:22:50 10° NNW
Aureole 1 Rocket 3.8 17:14:01 10° S 17:18:18 42° ESE 17:19:37 35° ENE
Cosmos 2278 Rocket 4.3 17:17:32 10° N 17:18:49 11° N 17:19:59 10° NNE
NOSS 2-2 (D) 4.3 17:22:05 10° W 17:24:43 25° NNW 17:25:11 24° NNW
ARIANE 5 R/B 3.5 17:20:08 10° S 17:25:02 48° W 17:30:01 10° NNW
Cosmos 1825 Rocket 4.3 17:21:21 10° NNW 17:25:36 52° W 17:29:47 10° S
Resurs 01 Rocket 3.7 17:29:46 14° N 17:29:46 14° N 17:30:24 10° N
Cosmos 1680 Rocket 3.8 17:26:53 10° NNW 17:31:45 41° NE 17:31:45 41° NE
NOAA 6 4.0 17:27:24 10° SE 17:32:23 57° ENE 17:37:23 10° N
USA 81 3.9 17:28:03 10° N 17:33:21 80° E 17:38:38 10° S
CZ-2D R/B 3.4 17:32:02 10° SSE 17:36:14 85° WSW 17:40:24 10° NNW
Radarsat Rocket 4.5 17:29:48 10° SSE 17:37:52 80° ENE 17:45:03 10° NNW
IRAS Rocket 4.1 17:33:17 10° SSE 17:38:45 76° ENE 17:44:14 10° NNW
NOSS 3-2 (A) 4.2 17:34:12 10° W 17:39:22 41° NNW 17:42:25 26° NNE
Gbstr 26 Del rocket 2.9 17:35:53 10° WSW 17:39:37 55° S 17:39:37 55° S
Meteor 2-2 Rocket 4.2 17:34:40 10° S 17:40:10 56° E 17:41:51 41° NE
Cosmos 1844 4.4 17:35:17 10° NNW 17:39:51 34° NNE 17:39:51 34° NNE
NOSS 3-2 (C) 3.5 17:35:15 10° WSW 17:40:27 64° NW 17:43:16 32° NNE
SPOT 1/Viking Rocket 3.8 17:36:47 10° S 17:41:58 69° WSW 17:47:11 10° NNW
Cosmos 1076 Rocket 4.3 17:39:29 10° NNW 17:43:40 52° W 17:47:51 10° S
PSLV R/B 3.2 17:43:07 58° SSE 17:43:52 84° ENE 17:47:58 10° NNW
SJ-7 4.3 17:47:21 67° NW 17:47:21 67° NW 17:50:42 10° NNW
SL-19 R/B 4.1 17:42:07 10° SSE 17:47:32 89° ENE 17:53:18 10° NNW
Cosmos 2082 3.6 17:41:47 10° NNW 17:47:32 83° ENE 17:50:41 28° SE
CZ-4C R/B 4.5 17:41:18 10° WNW 17:47:42 36° WSW 17:55:19 10° S
COSMO-SKYMED 1 3.2 17:49:13 41° S 17:49:13 41° S 17:52:01 10° S
Cosmos 2058 Rocket 2.9 17:46:06 10° S 17:50:34 82° E 17:50:44 80° ENE
Cosmos 2227 4.5 17:50:46 10° NNW 17:55:43 48° NNE 17:55:43 48° NNE
Meteor 2-11 Rocket 4.3 17:53:35 10° N 17:59:46 72° ENE 18:05:54 10° SSE
Nadezhda 2 Rocket 4.3 17:55:19 10° N 18:01:29 89° W 18:07:35 10° S
Meteor 1-26 Rocket 4.0 17:59:07 10° S 18:04:31 86° ESE 18:05:35 59° NNE
GEOS 3 Rocket 4.4 18:09:53 39° N 18:11:18 48° NW 18:16:27 10° WSW
Cosmos 1553 Rocket 3.8 18:05:41 10° S 18:11:51 83° E 18:14:51 33° NNE
Resurs 1-3 4.5 18:08:43 10° S 18:12:52 47° W 18:17:03 10° NNW
Cosmos 2219 3.7 18:07:23 10° NW 18:13:00 58° WSW 18:17:57 14° S
Lacrosse 5 rocket 3.1 18:09:37 10° WNW 18:11:16 22° NW 18:11:16 22° NW
Cosmos 1980 Rocket 2.2 18:13:27 10° SW 18:19:07 76° WNW 18:19:44 67° N
Cosmos 1844 Rocket 3.2 18:14:50 10° NNW 18:18:59 46° N 18:18:59 46° N
USA 281 4.2 18:22:44 32° NNE 18:22:44 32° NNE 18:26:53 10° NNW
CENTAUR R/B 3.9 18:16:18 10° WNW 18:22:27 34° N 18:24:02 32° NNE
Cosmos 1745 Rocket 4.1 18:19:39 10° N 18:24:47 61° N 18:24:47 61° N
Cosmos 2263 Rocket 3.8 18:22:26 10° NW 18:27:25 32° WSW 18:32:24 10° SSW
Cosmos 1898 Rocket 3.9 18:26:00 10° SSW 18:30:11 57° SW 18:30:11 57° SW
Cosmos 2369 4.1 18:26:19 10° SSW 18:30:42 55° SSW 18:30:42 55° SSW
Cosmos 44 Rocket 4.5 18:28:59 10° NW 18:32:08 38° NNW 18:32:08 38° NNW
USA 215 3.2 18:41:10 74° N 18:41:10 74° N 18:47:32 10° WNW
USA 238 DEB 3.6 18:34:55 10° SW 18:41:08 75° NW 18:41:14 75° NNW
USA 238 3.6 18:35:01 10° SW 18:41:15 76° NW 18:41:19 76° NNW
Cosmos 1697 Rocket 4.3 18:55:33 10° W 19:00:14 26° NW 19:00:59 26° NNW
CENTAUR R/B 4.5 20:07:48 10° NW 20:11:08 28° NNW 20:11:08 28° NNW
